Tracking 30101 objects as of 14-Dec-2024
HD Live streaming from Space Station
objects crossing your sky now

GORIZONT 2

Track GORIZONT 2 now!
GORIZONT 2 is classified as:


NORAD ID: 11440
Int'l Code: 1979-062A
Perigee: 35,760.3 km
Apogee: 35,812.5 km
Inclination: 7.1 °
Period: 1,435.7 minutes
Semi major axis: 42157 km
RCS: 3.981 m2 (large)
Launch date: July 5, 1979
Source: Commonwealth of Independent States (former USSR) (CIS)
Launch site: TYURATAM MISSILE AND SPACE COMPLEX (TTMTR)
Your satellite tracking list
Your tracking list is empty




NASA's NSSDC Master Catalog

Two Line Element Set (TLE):
1 11440U 79062A   24349.46529082  .00000015  00000-0  00000+0 0  9997
2 11440   7.0942 291.5846 0006198 327.6778  56.7684  1.00298035132496
Source of the keplerian elements: AFSPC